User: anonymous   Login
Location: *
(37.5724°S, 58.0067°E)
Time: 06:08:04
(UTC+00:00)
Language:

Cosmos 2297 - Orbit

View from above orbital plane
View from above orbital plane
View from above satellite
View from above satellite

Ground track
Ground track

The orbit data is extracted from the following two-line orbital elements,

1 23404U 94077A   20338.80169899 -.00000287  00000-0 -12727-3 0  9997
2 23404  71.0119 163.5601 0014603  17.1256 343.0355 14.13535216342870
Epoch (UTC): 03 December 2020 19:14:26
Eccentricity: 0.0014603
inclination: 71.0119°
perigee height: 837 km
apogee height: 858 km
right ascension of ascending node: 163.5601°
argument of perigee: 17.1256°
revolutions per day: 14.13535216
mean anomaly at epoch: 343.0355°
orbit number at epoch: 34287

The dashed part of the orbit path shows where the satellite is in the earth's shadow,  

DLR